Flag for Brazil Weather past 2 weeks in São Paulo, São Paulo, Brazil

Now
64 °F

Clear.


Feels Like: 64 °F
Forecast: 65 / 80 °F
Wind: 2 mph from Northwest

Location: Sao Paulo Airport

Current Time: May 25, 2015 at 5:08:53 AM

Latest Report: May 25, 2015 at 5:00 AM


Visibility: 10 mi

Pressure: 30.09 "Hg

Humidity: 83%

Dew point: 59 °F

Location of São PauloLocation

Historic Weather in São Paulo — Graph

°F

São Paulo temperature yesterday

Maximum temperature yesterday: 79 °F (at 3:00 PM)
Minimum temperature yesterday: 63 °F (at 6:00 AM)
Average temperature yesterday: 70 °F

Past Weeks' High & Low Weather Summary

 TemperatureHumidityPressure
High79 °F (May 24, 3:00 PM)100% (May 10, 9:00 PM)30.36 "Hg (May 10, 9:00 PM)
Low45 °F (May 10, 9:00 PM)47% (May 16, 3:00 PM)29.92 "Hg (May 11, 4:00 AM)
Average64 °F78%30.20 "Hg
* Reported May 10 4:00 AM — May 25 4:00 AM, São Paulo, Weather by CustomWeather, © 2015

Note: Actual official high and low records may vary slightly from our data, if they occured in-between our weather recording intervals... More about our weather records

Advertising

São Paulo weather history for previous 24 hours

 ConditionsComfort  
Time TempWeatherWind HumidityBarometerVisibility
4:00 AM
Mon, May 25
64 °FClear.2 mph83%30.09 "Hg10 mi
3:00 AM66 °FClear.5 mph78%30.09 "Hg10 mi
2:00 AM66 °FClear.5 mph78%30.09 "Hg10 mi
1:00 AM66 °FClear.5 mph78%30.09 "Hg10 mi
12:00 AM68 °FClear.3 mph73%30.09 "Hg10 mi
11:00 PM
Sun, May 24
70 °FClear.5 mph73%30.12 "Hg10 mi
10:00 PM70 °FClear.5 mph69%30.12 "Hg10 mi
9:00 PM72 °FClear.5 mph65%30.12 "Hg10 mi
8:00 PM72 °FClear.3 mph69%30.12 "Hg10 mi
7:00 PM73 °FClear.6 mph65%30.12 "Hg10 mi
6:00 PM73 °FClear.8 mph65%30.09 "Hg10 mi
5:00 PM75 °FClear.12 mph57%30.09 "Hg10 mi
4:00 PM77 °FSunny.13 mph54%30.07 "Hg10 mi
3:00 PM79 °FSunny.14 mph51%30.09 "Hg10 mi
2:00 PM77 °FSunny.13 mph54%30.07 "Hg10 mi
1:00 PM77 °FSunny.16 mph54%30.09 "Hg10 mi
12:00 PM75 °FSunny.14 mph57%30.12 "Hg10 mi
11:00 AM75 °FSunny.14 mph57%30.12 "Hg10 mi
10:00 AM72 °FSunny.17 mph61%30.15 "Hg10 mi
9:00 AM70 °FSunny.10 mph64%30.15 "Hg10 mi
8:00 AM66 °FSunny.7 mph68%30.12 "Hg10 mi
7:00 AM63 °FSunny.6 mph77%30.09 "Hg10 mi
6:00 AM63 °FSunny.10 mph77%30.09 "Hg10 mi
5:00 AM64 °FPassing clouds.7 mph73%30.07 "HgN/A
Weather by CustomWeather, © 2015

See weather overviewHow to use our weather pages